This demonstration page uses our WeatherBlox Daily Observations layout. Learn more.

Left ArrowRight Arrow

Hourly Observations for September 17, 2021

Temp ( °F °C ) Dew Point ( °F °C ) Humidity (%) Winds ( mph kmh ) Pressure ( in mb ) Visibility ( mi km ) Precip ( " mm )
12:54 am 00:54 Clear 75 23.9 64 17.8 69 69 S 10 17 29.84 1010 10 16 N/A
1:54 am 01:54 Clear 74 23.3 64 17.8 71 71 S 9 15 29.86 1011 10 16 N/A
2:54 am 02:54 Clear 73 22.8 64 17.8 74 74 S 12 19 29.86 1011 10 16 N/A
3:54 am 03:54 Clear 73 22.8 64 17.8 74 74 SSW 10 17 29.87 1011 10 16 N/A
4:54 am 04:54 Mostly Clear 70 21.1 63 17.2 79 79 N 7 11 29.91 1013 10 16 N/A
5:54 am 05:54 Cloudy 73 22.8 64 17.8 74 74 NNW 10 17 29.98 1015 10 16 N/A
6:54 am 06:54 Cloudy 69 20.6 61 16.1 76 76 NNE 13 20 30.02 1017 10 16 N/A
7:54 am 07:54 Cloudy with Light Rain 68 20 61 16.1 78 78 N 10 17 30.06 1018 10 16 0.00 0.00
8:54 am 08:54 Mostly Cloudy 68 20 62 16.7 81 81 N 12 19 30.09 1019 10 16 0.01 0.25
9:54 am 09:54 Cloudy with Light Rain 66 18.9 62 16.7 87 87 NNE 9 15 30.11 1020 9 14 0.00 0.00
10:30 am 10:30 Cloudy with Light Rain 65 18.3 62 16.7 90 90 N 20 31 30.10 1019 10 16 0.02 0.51
10:54 am 10:54 Cloudy with Light Rain 63 17.2 59 15 87 87 NE 17 28 30.12 1020 10 16 0.02 0.51
11:05 am 11:05 Mostly Cloudy 65 18.3 61 16.1 87 87 NNE 15 24 30.13 1020 10 16 0.00 0.00
11:12 am 11:12 Partly Cloudy 65 18.3 61 16.1 87 87 N 13 20 30.13 1020 10 16 0.00 0.00
11:54 am 11:54 Mostly Sunny 67 19.4 61 16.1 81 81 N 14 22 30.16 1021 10 16 0.00 0.00
12:54 pm 12:54 Sunny 70 21.1 60 15.6 71 71 N 16 26 30.16 1022 10 16 N/A
1:54 pm 13:54 Mostly Sunny 73 22.8 60 15.6 64 64 NE 10 17 30.14 1021 10 16 N/A
2:54 pm 14:54 Mostly Sunny 75 23.9 61 16.1 62 62 NE 12 19 30.12 1020 10 16 N/A
3:54 pm 15:54 Mostly Cloudy 73 22.8 59 15 62 62 N 14 22 30.14 1021 10 16 N/A
4:54 pm 16:54 Sunny 76 24.4 58 14.4 54 54 NNE 14 22 30.12 1020 10 16 N/A
5:54 pm 17:54 Sunny 72 22.2 56 13.3 57 57 NNE 14 22 30.13 1020 10 16 N/A
6:54 pm 18:54 Sunny 71 21.7 55 12.8 57 57 NE 10 17 30.14 1021 10 16 N/A
7:54 pm 19:54 Clear 66 18.9 53 11.7 63 63 NNE 7 11 30.16 1021 10 16 N/A
8:54 pm 20:54 Clear 64 17.8 52 11.1 65 65 NNE 7 11 30.18 1022 10 16 N/A
9:54 pm 21:54 Clear 62 16.7 52 11.1 70 70 NNE 6 9 30.19 1023 10 16 N/A
10:54 pm 22:54 Clear 60 15.6 52 11.1 75 75 N 7 11 30.19 1022 10 16 N/A
11:54 pm 23:54 Clear 58 14.4 51 10.6 78 78 N 6 9 30.18 1022 10 16 N/A

Powered by AerisWeather